User: anonymous   Login
Location: Castro Valley
(37.6940°N, 122.0850°W)
Time: 02:32:49
(UTC-07:00)
Language:

PANSAT - Orbit

View from above orbital plane
View from above orbital plane
View from above satellite
View from above satellite

Ground track
Ground track

The orbit data is extracted from the following two-line orbital elements,

1 25520U 98064B   14294.83323235  .00007104  00000-0  27445-3 0  6028
2 25520 028.4581 092.8909 0004840 064.4000 047.1562 15.24238408885970
Epoch (UTC): 21 October 2014 19:59:51
Eccentricity: 0.0004840
inclination: 28.4581°
perigee height: 490 km
apogee height: 496 km
right ascension of ascending node: 92.8909°
argument of perigee: 64.4000°
revolutions per day: 15.24238408
mean anomaly at epoch: 47.1562°
orbit number at epoch: 88597

The dashed part of the orbit path shows where the satellite is in the earth's shadow,  

DLR